Regional Weather Roundup
Issued by NWS

Home | Current Version | Previous Version | Graphics & Text | Print | Product List | Glossary On
Versions: 1 2 3 4 5 6 7 8 9 10 11 12 13 14 15 16 17 18 19 20 21 22 23 24 25 26 27 28 29 30 31 32 33 34 35 36 37 38 39 40 41 42 43 44 45 46 47 48 49 50
486
ASUS44 KLIX 310305
RWRLA
LOUISIANA WEATHER ROUNDUP
NATIONAL WEATHER SERVICE NEW ORLEANS LA
1000 PM CDT THU OCT 30 2014

NOTE: "FAIR" INDICATES FEW OR NO CLOUDS BELOW 12,000 FEET WITH NO
      SIGNIFICANT WEATHER AND/OR OBSTRUCTIONS TO VISIBILITY.
      SKY/WX - SKY CONDITION AND SIGNIFICANT WEATHER.
      TMP - AIR TEMPERATURE.    DP   - DEWPOINT TEMPERATURE.
      RH  - RELATIVE HUMIDITY.  PRES - PRESSURE.
      HX  - HEAT INDEX.         WCI  - WIND CHILL INDEX.

*  THESE STATIONS ARE NOT NWS OR FAA STATIONS AND ARE NOT UNDER
   NWS QUALITY CONTROL.

LAZ040-048-061>063-065-066-069-310400-
SOUTHEAST LOUISIANA

CITY           SKY/WX    TMP DP  RH WIND       PRES   REMARKS
N.O. AUDUBON     N/A     61  53  75 MISG        N/A
N.O. INTL ARPT CLEAR     58  49  72 NW3       30.05S
N.O. LAKEFRONT CLEAR     69  45  41 N12       30.05S
N.O. DOWNTOWN* FAIR      68  43  40 N5        30.06S
SLIDELL        CLEAR     51  47  86 CALM      30.05R
BATON ROUGE    CLEAR     53  49  86 CALM      30.06S
BOOTHVILLE     CLEAR     61  54  77 NW3       30.04S
BELLE CHASSE   CLEAR     52  48  86 CALM      30.05R
BOGALUSA*        N/A     50  46  83 CALM      30.07S
NEW ROADS*     FAIR      53  48  85 CALM      30.07S
GONZALES*      FAIR      53  52  98 CALM      30.06S
HAMMOND*       CLEAR     52  46  82 CALM      30.07S
HOUMA*         CLEAR     55  51  86 NW3       30.06S
PORT FOURCHON* CLEAR     66  52  59 N6        30.09R

$$

LAZ041-044-053-054-310400-
SOUTHWEST LOUISIANA

CITY           SKY/WX    TMP DP  RH WIND       PRES   REMARKS
LAKE CHARLES   CLEAR     54  51  90 CALM      30.08S
LAFAYETTE      CLEAR     56  53  90 CALM      30.08R
PATTERSON      CLEAR     55  52  88 CALM      30.09S
SALT POINT       N/A     62  51  67 N3        30.06R
NEW IBERIA     CLEAR     57  51  80 CALM      30.08R
CHENAULT AIRPK CLEAR     56  51  85 CALM      30.09R

$$

LAZ027-028-310400-
CENTRAL LOUISIANA

CITY           SKY/WX    TMP DP  RH WIND       PRES   REMARKS
FORT POLK      NOT AVBL
ALEXANDRIA INT CLEAR     52  49  89 CALM      30.07S
ALEXANDRIA     CLEAR     50  48  93 CALM      30.09R

$$

LAZ001-002-310400-
NORTHWEST LOUISIANA

CITY           SKY/WX    TMP DP  RH WIND       PRES   REMARKS
SHREVEPORT     CLEAR     56  49  77 CALM      30.08R
BARKSDALE AFB  CLEAR     55  50  83 CALM      30.09R
DTN SHREVEPORT CLEAR     56  50  80 CALM      30.09R

$$

LAZ014-016-310400-
NORTHEAST LOUISIANA

CITY           SKY/WX    TMP DP  RH WIND       PRES   REMARKS
MONROE         CLOUDY    55  51  86 CALM      30.09R
TALLULAH       CLEAR     48  46  93 CALM      30.07R

$$




USA.gov is the U.S. government's official web portal to all federal, state and local government web resources and services.